Overview Statistics Trail Chart Weather Telemetry Raw packets
 

This is the latest recevied weather packets stored in our database for station/object W0WC. If no packets are shown the sender has not sent any weather packets the latest 10 day(s).

<< 47 48 49 50 51 52 53 >>
Time Temp. Humidity Pressure Rain* Wind** Luminosity Snow
1788364753 32.78° C 50% 1018.4 hPa 0 mm - 552 W/m² -
1788364448 33.33° C 49% 1018.6 hPa 0 mm - 528 W/m² -
1788364142 32.78° C 50% 1018.6 hPa 0 mm - 552 W/m² -
1788363838 32.22° C 52% 1018.6 hPa 0 mm - 559 W/m² -
1788363537 32.22° C 52% 1018.6 hPa 0 mm - 415 W/m² -
1788363251 31.67° C 54% 1018.4 hPa 0 mm - 461 W/m² -
1788362932 32.22° C 53% 1018.8 hPa 0 mm - 230 W/m² -
1788362628 31.67° C 53% 1018.5 hPa 0 mm - 278 W/m² -
1788362323 31.67° C 54% 1018.6 hPa 0 mm - 342 W/m² -
1788362018 31.67° C 53% 1018.4 hPa 0 mm - 259 W/m² -
1788361713 31.67° C 54% 1018.5 hPa 0 mm - 226 W/m² -
1788361409 31.67° C 54% 1018.5 hPa 0 mm - 214 W/m² -
1788361108 31.67° C 54% 1018.6 hPa 0 mm - 249 W/m² -
1788360804 31.67° C 53% 1018.3 hPa 0 mm - 209 W/m² -
1788360499 32.22° C 52% 1018.2 hPa 0 mm - 177 W/m² -
1788360196 31.67° C 53% 1018.4 hPa 0 mm - 341 W/m² -
1788359890 31.67° C 53% 1018.3 hPa 0 mm - 293 W/m² -
1788359585 31.67° C 52% 1018.4 hPa 0 mm - 404 W/m² -
1788359281 31.67° C 53% 1018.3 hPa 0 mm - 341 W/m² -
1788358976 31.11° C 54% 1018.4 hPa 0 mm - 419 W/m² -
1788358676 31.11° C 53% 1018.4 hPa 0 mm - 359 W/m² -
1788358372 30.56° C 54% 1018.2 hPa 0 mm - 249 W/m² -
1788358066 30.56° C 55% 1018.4 hPa 0 mm - 294 W/m² -
1788357761 30° C 56% 1018.4 hPa 0 mm - 113 W/m² -
1788357460 30° C 56% 1018.6 hPa 0 mm - 142 W/m² -

* Rain latest hour (hover to see other rain measurements)
** Current wind speed in m/s (hover to see current wind gust speed)